Wind_Speed
34 34 34 35 35 35 35 35 36 36 37 39 39 39 39 39 40 40 39 37 34 32 31 29 27 26 25 25 24 23 21 20 20 21 23 25 26 27 27 27 28 28 29 30 31 32 33 34 34 35 36 36 37 37 37 38 38 39 40 42 43 44 46 48 52 57 58 56 56 57 58 60 61 62 65 67 68 69 71 72 73 75 77 78 78
33 33 34 34 35 35 35 36 35 35 35 36 37 37 38 38 39 38 37 34 32 31 30 28 26 25 25 24 23 21 21 20 21 23 24 26 26 27 28 28 29 29 30 31 32 33 34 34 35 36 37 37 37 38 38 38 38 39 41 42 43 43 44 47 50 55 58 58 57 58 59 61 62 63 65 68 70 71 73 74 75 76 78 79 80
30 31 32 33 34 34 35 35 35 34 34 33 33 34 35 35 35 34 32 31 30 29 28 26 26 25 25 23 22 21 21 22 23 25 26 26 27 28 28 29 30 30 31 32 33 34 34 35 36 37 37 38 38 38 38 38 39 40 41 42 42 42 43 45 48 51 56 59 58 59 60 62 63 64 66 69 71 72 74 76 76 77 78 79 80
29 30 30 31 31 32 32 32 32 32 31 31 31 32 32 31 30 29 28 28 28 27 26 25 25 25 24 22 22 22 23 24 25 26 27 27 28 29 29 30 30 31 32 33 34 34 35 36 37 38 38 38 37 37 38 39 40 40 41 41 41 42 42 43 46 49 53 57 58 59 61 63 64 65 67 70 71 73 75 77 78 78 79 79 80
28 29 29 29 29 29 29 29 29 29 29 29 30 29 28 27 26 26 26 26 26 25 25 25 25 24 23 23 23 24 25 25 26 27 27 28 29 29 30 30 31 32 33 34 34 35 36 37 38 38 38 38 37 38 39 39 40 40 40 41 41 41 42 43 45 48 51 54 57 58 60 63 64 65 68 71 74 75 76 78 79 80 81 81 81
26 26 26 27 26 26 26 25 25 26 26 27 27 26 25 24 23 24 24 24 24 25 25 25 25 24 24 25 25 26 26 26 27 27 28 29 29 30 30 31 32 33 34 35 36 36 37 38 39 39 39 38 39 39 39 40 40 40 40 41 41 41 42 43 45 48 50 53 56 59 61 63 65 67 68 72 76 78 79 80 80 80 82 83 83
26 25 24 24 23 23 23 23 23 23 23 23 22 22 21 21 21 22 22 23 24 25 26 25 25 25 26 27 27 27 27 27 28 28 28 29 29 30 31 31 33 34 35 36 36 37 38 39 40 40 39 39 39 39 40 40 40 41 41 41 42 42 43 45 47 49 52 54 57 60 62 64 66 68 70 72 76 78 81 83 84 83 82 83 83
26 25 25 23 22 21 21 21 21 20 20 20 19 19 19 19 20 21 22 24 25 26 26 26 27 27 28 28 28 28 28 28 29 29 29 29 30 30 31 32 34 35 36 36 37 37 39 41 41 40 40 39 39 40 40 41 41 41 41 42 42 43 45 47 49 51 53 56 58 61 63 65 66 69 71 74 77 80 82 84 85 85 83 83 82
26 26 25 24 22 21 20 19 19 18 18 18 17 17 18 19 20 22 23 25 26 27 27 28 29 29 29 29 29 29 29 29 30 30 30 30 30 31 32 33 35 35 36 37 38 39 41 41 41 40 39 39 39 40 41 41 42 42 42 42 43 45 47 48 51 53 55 57 60 62 64 65 67 70 73 76 79 81 82 83 84 83 82 82 80
26 25 25 24 22 21 20 19 18 18 18 17 18 18 19 21 22 24 25 27 27 28 29 30 31 31 31 31 31 31 31 31 31 31 31 31 31 32 33 34 35 36 36 37 39 41 42 41 39 38 38 38 39 39 40 41 41 41 42 43 44 46 48 50 52 54 56 58 60 62 64 66 68 71 74 77 79 81 82 82 82 81 80 81 80
27 26 25 24 23 22 21 20 20 19 19 19 20 21 22 23 25 26 28 28 29 30 31 32 32 32 32 32 32 32 32 32 32 32 32 32 32 33 34 34 35 36 37 38 40 41 40 39 38 37 37 37 38 39 40 40 40 41 42 43 45 47 49 51 52 54 57 59 60 62 65 67 69 71 75 78 79 81 80 79 79 79 79 81 81
28 28 27 25 24 23 22 21 20 20 20 21 22 23 25 26 27 28 29 30 31 32 33 33 34 34 34 34 34 34 33 33 33 33 34 34 34 34 34 35 36 37 38 39 40 40 38 36 36 35 36 36 37 38 39 39 39 40 41 43 45 47 49 51 53 55 57 59 60 61 65 68 70 72 75 78 80 80 79 78 77 78 79 79 80
29 29 27 25 24 22 21 22 21 22 22 23 25 26 27 28 29 29 30 32 33 34 35 35 36 36 36 36 35 35 35 34 34 34 35 35 35 35 35 36 37 38 38 40 40 39 37 35 34 34 35 36 37 38 38 38 39 40 41 43 45 47 49 50 52 54 56 59 60 62 65 69 71 73 76 78 79 78 78 78 77 77 77 77 77
28 28 28 26 25 24 23 23 24 24 25 26 27 27 28 29 30 31 33 34 35 36 37 37 38 37 37 37 37 37 36 36 35 36 36 36 36 36 36 37 38 38 39 40 39 37 35 34 34 34 35 36 37 37 37 38 39 40 42 44 45 47 48 50 52 54 56 59 61 63 65 68 71 74 76 76 76 76 76 77 77 76 76 75 74
26 26 26 26 26 25 25 26 26 27 27 28 28 29 29 31 32 33 35 36 37 38 39 39 39 39 39 39 38 38 37 37 37 37 37 37 37 37 37 38 39 39 39 38 37 36 34 33 34 34 35 36 36 37 38 39 40 41 43 44 46 47 48 50 52 55 57 59 62 64 66 68 71 74 75 74 73 73 74 75 75 75 75 74 72
28 27 27 27 27 28 28 29 29 29 30 30 31 31 32 33 34 35 36 38 39 40 40 41 41 40 40 40 39 39 39 39 39 39 38 38 38 38 39 39 39 39 38 37 36 34 33 33 34 35 35 36 36 37 38 40 41 42 43 45 46 47 48 50 52 54 56 59 62 64 67 69 71 72 71 71 72 72 73 74 73 72 73 74 74
30 29 29 29 29 30 31 31 32 32 33 33 34 34 35 35 36 36 37 38 39 40 41 41 41 41 41 41 40 40 40 40 40 40 39 39 39 40 40 40 39 38 36 35 34 33 33 33 34 35 35 36 36 38 39 40 41 43 44 44 45 46 48 51 52 54 56 59 62 64 66 68 69 69 70 70 71 72 73 73 72 72 73 74 74
30 30 30 30 31 31 32 33 35 35 36 37 37 37 37 37 37 37 38 39 40 41 41 42 42 42 42 42 42 41 41 41 41 40 40 40 41 41 41 40 38 36 35 33 32 32 32 33 34 35 35 35 37 38 40 41 42 43 43 44 45 47 49 51 52 53 56 59 61 64 66 68 69 69 70 70 69 70 71 71 71 71 72 72 72
32 32 32 32 32 33 34 35 36 37 38 39 39 39 39 38 38 39 39 40 40 41 42 42 42 43 43 42 42 42 42 42 41 41 41 41 42 42 41 39 37 35 33 31 31 31 31 32 33 33 34 36 37 39 40 41 42 43 44 45 46 48 50 51 52 54 56 59 61 63 65 67 69 70 69 67 66 67 69 69 69 68 68 69 68
34 34 34 34 35 35 36 36 37 38 39 40 39 39 39 39 39 40 40 40 41 41 42 42 43 43 43 42 42 42 42 42 43 43 42 42 43 42 40 38 36 34 32 31 31 31 31 31 32 33 34 36 37 38 40 41 42 43 44 46 48 49 50 51 52 55 57 59 61 63 65 67 69 69 67 64 63 64 65 66 66 65 64 64 64
37 36 36 36 36 36 36 36 37 37 38 39 40 40 40 40 40 40 40 41 41 42 42 42 43 43 42 42 43 43 43 43 43 43 43 44 44 42 40 38 35 33 31 31 31 30 30 31 32 33 35 36 37 38 39 41 42 43 45 47 49 50 50 50 52 55 58 59 61 63 65 66 68 67 65 62 61 61 62 63 64 63 61 59 58
38 38 38 38 37 37 36 36 36 36 37 38 39 40 41 41 41 41 42 42 42 42 42 42 42 43 42 43 44 44 44 44 44 44 45 45 44 41 39 37 34 32 32 31 30 30 30 31 33 34 35 36 37 38 40 41 43 44 46 48 49 50 50 51 53 55 58 59 61 63 64 66 67 66 62 59 58 59 60 61 62 62 60 55 51
39 39 39 39 39 38 38 38 38 38 38 38 38 40 40 41 42 42 42 42 42 42 42 42 43 43 43 44 45 45 45 45 45 46 47 45 43 41 38 35 32 32 32 31 30 30 30 32 33 34 35 36 37 39 40 42 43 45 46 48 49 49 50 52 54 56 57 59 60 62 64 65 65 64 60 57 57 57 58 60 60 60 59 55 49
34 35 35 35 36 37 38 38 38 38 38 38 39 39 40 40 41 41 42 42 42 42 42 42 43 44 44 45 46 46 46 46 47 48 47 44 42 39 36 33 32 32 32 31 30 30 31 32 33 34 35 36 37 39 41 42 43 45 46 47 48 49 51 52 54 56 57 59 60 61 63 64 63 60 57 56 56 56 57 58 57 57 57 55 49
32 32 33 33 34 35 36 37 38 38 38 38 39 39 39 40 40 41 41 41 41 41 42 43 43 45 46 46 46 47 47 48 50 48 45 42 40 36 33 32 32 32 31 30 30 31 32 32 33 34 35 37 38 40 41 42 43 45 46 47 48 49 51 52 54 56 57 58 59 60 61 61 59 56 55 54 54 55 56 56 56 55 55 54 49
36 36 36 37 36 37 37 37 37 37 38 38 38 39 39 39 40 40 40 41 41 41 42 43 44 45 46 47 47 48 49 51 50 47 43 41 37 34 32 32 31 31 30 30 31 31 32 33 34 35 36 37 39 40 41 42 43 45 46 47 48 49 51 52 54 55 57 58 58 59 58 57 55 53 52 52 53 54 55 54 55 55 54 54 51
40 40 41 41 40 40 39 38 38 38 37 37 38 38 39 39 40 41 41 41 41 41 42 44 45 46 47 48 49 50 51 52 49 45 42 38 34 33 32 31 30 30 30 31 31 32 33 33 34 35 37 38 39 40 41 42 43 45 46 47 48 49 50 52 53 55 56 57 57 56 55 54 52 51 50 51 52 52 53 53 53 54 54 54 52
39 40 41 41 41 41 40 40 39 39 38 38 38 38 39 39 40 40 40 40 40 41 43 44 46 47 48 50 51 51 52 51 47 43 39 36 33 32 32 30 30 31 31 32 33 33 34 34 35 36 37 38 39 39 40 42 43 44 46 47 48 49 50 51 53 54 56 56 55 54 52 51 49 49 49 50 51 51 51 51 52 53 54 53 51
36 37 38 39 40 40 39 39 38 37 37 37 38 38 39 40 40 40 39 40 41 42 44 46 47 48 50 51 52 52 52 50 45 41 38 35 33 33 32 31 31 31 32 33 34 35 35 35 36 36 37 38 39 39 40 41 43 44 45 46 47 49 50 51 52 53 55 55 54 52 51 49 47 47 47 48 49 49 49 49 50 51 52 52 50
36 37 38 38 38 38 38 37 37 36 35 36 36 37 38 39 40 40 40 41 42 43 46 48 49 50 51 52 52 53 51 48 43 40 37 35 33 33 32 31 32 32 33 35 36 36 37 36 36 37 38 38 39 39 40 41 42 44 45 46 47 48 49 50 51 53 54 54 52 50 49 47 46 46 46 47 47 47 47 48 49 50 51 50 48
35 36 36 36 37 37 37 37 36 36 35 36 36 37 38 39 39 40 40 41 43 45 47 49 50 51 52 53 53 52 49 45 42 40 37 34 34 34 33 32 33 34 36 37 38 38 38 37 36 37 38 39 40 40 41 41 42 44 46 46 47 48 49 49 50 52 52 51 49 48 46 45 45 44 45 45 45 45 46 46 47 48 49 48 46
33 33 33 33 34 34 35 35 35 35 35 35 36 38 39 40 40 40 41 42 44 46 48 49 50 51 52 52 52 50 46 43 41 38 36 34 35 36 36 35 35 36 38 39 39 39 39 38 38 38 39 40 41 41 41 42 43 44 45 46 47 48 48 49 50 50 50 49 47 46 44 44 43 43 43 44 44 44 44 44 45 46 46 46 44
34 33 32 33 33 33 33 33 33 33 34 34 35 36 38 39 40 40 41 42 43 45 47 49 50 51 51 52 51 48 44 41 39 37 35 36 38 38 38 38 37 37 38 40 41 41 40 40 39 39 39 41 42 42 42 42 44 45 45 46 46 47 47 48 48 49 48 47 45 44 43 42 41 41 41 42 43 43 43 43 43 43 44 43 42
36 36 35 35 35 35 35 35 35 36 36 36 36 36 36 37 38 39 40 41 43 44 46 48 48 50 51 51 49 46 43 41 39 37 37 38 39 40 41 41 40 39 39 41 42 42 41 41 41 40 40 41 42 42 42 43 44 45 45 46 46 46 46 47 47 47 46 44 42 41 41 40 40 40 40 40 41 41 42 42 42 42 41 41 40
37 37 37 37 37 37 37 37 38 38 38 39 39 38 38 38 38 38 39 40 42 44 46 47 48 50 50 50 48 45 43 42 41 40 39 40 42 43 43 42 42 41 41 42 43 43 43 43 43 42 41 42 42 42 42 43 44 45 45 45 46 46 46 45 45 45 44 42 41 40 39 39 39 39 39 39 39 40 40 41 41 40 39 38 37
37 38 38 38 38 38 38 38 38 38 39 40 40 40 40 40 40 39 40 41 43 45 46 47 49 50 49 48 46 44 43 43 44 43 42 42 44 45 44 44 44 43 42 43 44 45 45 46 45 42 41 41 42 42 43 43 44 45 45 46 46 45 45 44 44 43 42 41 39 38 37 37 37 37 38 38 38 39 39 39 39 38 36 35 34
39 39 39 38 38 38 38 38 38 38 38 39 40 41 42 43 43 43 43 43 44 45 46 47 48 48 48 47 46 44 44 46 47 46 45 46 47 46 46 47 47 45 44 44 45 47 47 47 45 42 41 41 41 42 43 44 44 45 45 46 45 45 44 43 42 42 42 40 38 37 36 36 36 36 36 36 37 37 37 37 37 36 34 31 30
41 41 41 40 40 40 39 39 39 39 39 40 40 41 42 43 44 45 44 44 45 45 46 47 48 48 48 48 47 47 47 49 50 49 48 49 49 48 49 50 49 47 45 45 46 48 48 47 45 43 41 41 41 42 43 44 44 44 45 45 45 44 43 42 41 40 39 38 37 36 35 35 35 35 35 35 35 35 35 35 34 34 31 28 27
44 44 43 43 43 42 42 42 41 41 40 40 41 42 43 44 45 45 44 44 45 46 47 48 48 49 49 49 49 50 51 52 52 51 50 51 51 51 53 53 50 48 46 46 47 48 47 46 45 43 41 41 41 41 42 43 44 44 44 44 44 43 42 40 39 38 37 37 36 36 35 35 34 34 34 34 34 34 33 33 32 31 29 26 24
47 47 46 46 45 44 44 43 43 42 42 41 42 44 45 45 46 45 45 45 46 47 48 48 49 49 50 51 52 53 54 54 53 52 53 53 53 55 56 54 51 50 49 47 47 47 46 45 45 43 41 41 41 41 42 43 43 43 43 43 42 42 41 39 38 37 37 36 35 35 35 35 34 34 33 33 32 32 32 31 30 29 27 24 22
50 49 49 48 48 47 46 45 44 44 43 42 43 44 45 46 47 47 47 48 48 48 49 49 50 51 53 54 55 56 56 56 56 56 56 56 56 57 57 55 53 53 51 48 48 47 46 45 45 43 41 41 40 40 41 42 42 42 41 41 41 41 40 38 37 36 36 35 35 35 35 35 35 34 33 32 31 30 30 29 28 26 25 23 21
53 53 53 53 52 52 51 50 49 48 47 46 45 45 46 47 49 49 50 50 50 50 51 52 53 55 55 55 56 58 58 58 58 58 58 58 58 59 58 56 55 53 51 49 49 48 47 45 44 43 41 40 39 40 41 41 41 41 40 40 40 40 38 37 36 35 35 35 34 34 35 36 35 34 32 31 30 29 28 28 26 24 23 21 19
56 56 56 56 55 55 54 53 53 52 51 50 49 47 47 48 50 51 52 53 53 53 54 54 55 56 56 56 58 59 59 59 59 58 58 58 59 58 57 56 55 53 52 51 51 49 47 45 44 42 41 39 39 39 40 40 40 39 39 39 39 38 37 36 35 35 35 34 34 34 35 35 35 34 32 31 29 27 27 26 25 23 21 19 17
54 54 54 54 54 54 53 53 53 52 52 51 51 50 49 48 49 51 52 54 55 55 56 56 57 57 57 57 58 60 60 59 58 58 58 59 59 58 57 57 56 55 53 53 52 49 47 45 43 42 40 38 38 38 39 39 38 37 38 38 38 37 36 35 34 34 34 34 33 34 35 35 34 33 32 30 29 27 26 25 24 23 21 19 16
50 51 51 51 51 51 51 50 50 50 50 50 51 51 51 50 50 50 51 52 54 56 57 58 58 58 58 58 59 59 59 58 58 58 59 59 59 58 58 58 57 56 55 53 52 50 47 44 43 41 39 38 37 37 38 38 37 37 37 37 38 37 35 34 33 34 34 34 33 33 34 35 34 32 31 30 28 26 25 24 24 22 21 19 16
46 47 48 48 48 49 49 49 49 49 49 49 49 49 50 50 51 51 51 51 53 55 57 58 59 59 59 59 59 59 59 58 58 59 59 59 59 59 58 58 57 56 55 53 52 50 47 44 42 40 38 37 36 36 36 36 36 36 36 37 37 36 35 33 33 33 33 33 33 33 33 34 33 31 29 29 28 27 25 24 23 23 22 20 18
42 43 44 44 45 46 46 47 47 47 48 48 48 48 48 49 49 50 51 51 52 53 55 57 58 59 60 60 60 60 59 58 58 59 59 59 59 59 58 58 57 55 54 53 52 49 45 43 41 39 38 37 36 35 35 35 35 35 35 36 36 35 34 33 32 32 33 33 32 32 33 32 31 29 28 28 27 26 25 24 24 23 22 21 20
40 40 41 42 43 43 44 44 45 45 46 46 46 46 47 47 48 48 49 50 51 52 53 54 55 57 58 59 59 59 59 58 58 58 58 58 58 57 57 56 55 54 54 52 50 47 44 42 40 39 37 36 35 34 34 34 33 33 34 34 34 34 33 32 31 31 32 32 32 32 32 31 29 28 27 27 26 26 25 23 23 23 22 21 21
40 40 41 41 42 42 43 44 44 45 45 46 46 46 46 47 47 47 47 48 49 51 52 52 53 53 55 57 58 59 59 59 58 58 58 57 56 56 56 55 54 54 52 50 48 46 44 42 40 38 37 36 35 34 33 32 32 32 32 33 33 33 32 32 31 31 31 31 31 31 31 30 29 27 27 26 26 25 24 23 23 23 22 22 21
42 43 43 43 44 44 44 45 45 46 46 47 47 48 48 48 48 48 48 48 48 49 50 51 52 52 54 56 58 59 60 60 59 58 57 57 56 56 56 55 54 52 50 49 47 45 43 41 39 37 36 35 34 33 32 32 31 31 31 31 31 31 31 31 31 30 31 31 31 31 30 29 28 28 27 27 26 25 24 23 22 22 23 22 22
46 46 46 46 46 47 47 47 47 48 48 48 49 49 49 49 50 50 50 50 49 49 49 50 51 52 53 55 57 59 60 60 60 59 59 58 57 57 56 54 52 50 48 48 47 44 42 40 38 37 36 35 34 32 32 31 31 31 30 30 30 30 30 30 30 30 31 31 31 30 30 29 28 28 28 27 26 25 24 23 22 22 22 23 23
Wind_Direction
257 257 258 258 258 258 258 258 258 258 258 258 258 258 259 259 260 260 260 260 260 258 257 253 248 244 244 245 247 252 258 266 274 281 287 290 291 292 292 294 295 297 299 301 303 304 305 306 308 309 311 311 312 313 314 315 316 317 317 318 319 320 320 320 319 319 320 321 322 322 323 323 323 324 323 322 321 322 322 322 322 322 322 322 321
260 259 259 258 258 258 257 257 256 256 256 257 257 258 258 258 258 258 258 257 255 253 251 246 243 241 242 245 249 255 262 270 278 284 288 289 291 292 293 295 296 297 299 301 303 304 305 306 307 309 310 311 312 313 314 315 315 316 318 319 320 320 320 320 319 319 319 320 322 322 323 324 325 325 324 323 323 322 322 323 323 323 323 322 322
261 260 259 259 258 258 257 257 256 256 256 256 257 258 258 258 257 255 253 250 249 247 244 241 239 240 243 247 252 258 266 274 280 285 288 289 291 293 294 295 296 298 301 302 304 304 305 306 307 309 310 310 312 313 313 314 315 317 318 319 320 320 320 319 319 319 319 320 322 323 324 324 325 326 325 324 325 324 323 323 323 323 323 323 323
263 262 261 260 259 258 257 257 257 257 257 257 257 258 257 255 251 247 245 244 243 241 239 238 239 241 245 249 254 261 269 276 281 285 287 290 292 293 294 296 298 300 301 302 303 303 304 306 307 308 309 310 311 312 313 314 316 318 319 319 320 319 319 318 318 319 319 320 321 323 324 325 326 327 326 325 325 325 324 324 324 324 324 324 324
265 264 264 263 262 260 258 257 257 256 256 255 255 255 252 248 244 240 239 239 238 237 236 238 240 243 246 251 257 265 272 278 282 285 288 290 292 294 295 297 298 299 300 300 301 302 304 305 306 307 309 310 311 311 313 315 317 318 318 318 318 318 317 317 317 318 319 321 322 323 324 325 326 327 327 326 326 326 325 325 325 326 325 325 325
267 266 266 265 264 262 259 257 255 253 252 251 250 248 244 240 238 236 235 235 235 235 236 239 242 244 248 254 261 268 274 279 283 286 288 290 291 294 295 297 298 298 299 300 301 302 304 306 307 308 309 309 310 311 314 316 317 318 318 318 317 317 317 317 317 318 320 321 323 324 325 326 327 327 328 328 327 327 327 326 326 326 326 325 325
270 268 267 266 263 261 257 254 252 249 247 245 242 240 237 235 234 233 233 234 235 237 239 241 243 246 251 258 264 270 275 280 283 286 287 289 291 293 295 297 297 297 298 299 301 303 305 308 309 309 308 308 309 312 315 316 317 317 317 317 317 317 317 317 318 319 320 322 324 325 326 327 328 328 328 328 328 328 328 327 327 327 326 326 325
269 268 267 265 262 259 255 251 247 244 241 239 236 236 236 235 235 235 235 236 238 240 242 243 246 250 256 261 267 272 276 280 283 284 286 288 290 293 294 295 296 296 298 299 301 304 308 310 310 308 307 308 311 314 316 317 318 318 318 317 317 317 317 318 319 320 321 323 324 326 327 328 328 328 328 329 329 329 329 328 327 327 326 326 326
263 263 262 261 258 255 251 248 245 244 242 242 242 242 242 241 240 240 240 241 242 243 244 246 249 254 259 264 269 273 277 280 282 283 285 287 289 292 293 294 295 296 298 299 302 307 310 310 307 306 307 310 313 315 317 318 318 318 318 317 317 317 318 319 320 321 323 324 326 327 327 328 329 329 329 330 329 329 329 328 327 326 326 325 325
257 256 257 257 255 253 251 249 248 248 248 249 249 248 247 246 244 244 244 244 245 245 246 249 253 258 263 267 271 274 277 279 281 282 284 286 289 291 292 293 295 296 297 299 305 309 309 306 305 306 308 311 315 317 318 318 318 318 318 317 317 318 318 319 320 322 324 325 327 327 327 328 330 330 330 330 329 329 328 327 327 326 326 324 324
258 255 254 253 252 251 250 249 249 250 250 251 251 250 249 248 247 247 247 247 247 248 250 254 258 262 266 269 272 274 277 279 281 283 285 286 288 289 291 293 294 295 297 301 305 307 305 303 304 307 310 313 316 317 318 318 317 317 316 316 317 318 319 320 321 324 325 326 327 328 328 330 331 330 330 329 328 328 328 327 327 327 327 327 326
259 256 253 251 250 249 249 250 251 252 253 254 253 253 252 252 251 251 251 251 251 252 255 259 262 265 268 271 273 274 277 279 281 283 284 286 287 288 290 291 293 295 298 301 304 303 301 302 305 308 312 315 317 318 318 317 316 315 315 316 317 318 319 321 323 325 326 327 328 330 330 330 331 330 330 329 328 328 328 328 328 328 329 328 327
261 258 254 251 250 250 252 254 255 257 258 257 257 256 256 256 256 256 255 254 255 257 260 263 265 268 270 271 273 274 276 279 280 282 283 284 286 287 289 291 293 296 298 300 301 300 300 303 307 311 315 316 318 318 317 315 314 314 315 316 318 319 321 323 325 326 327 328 330 331 331 331 331 331 330 329 328 329 329 329 330 329 328 328 328
264 261 257 253 251 251 252 255 257 259 260 260 260 260 260 260 260 259 259 259 260 262 263 265 267 269 270 271 273 274 276 278 280 281 282 283 285 287 289 292 294 296 297 299 299 298 299 304 309 314 317 318 319 318 316 315 315 316 317 318 319 321 322 324 326 327 329 331 331 332 332 331 331 331 330 330 329 330 331 330 330 329 328 328 329
264 262 259 257 255 253 253 254 256 258 260 262 263 264 264 264 263 262 262 262 263 264 265 267 268 269 271 272 273 274 276 278 279 280 281 282 285 287 289 291 293 294 296 297 297 297 301 307 313 317 319 320 319 317 316 316 317 318 319 319 320 322 323 325 327 329 331 332 332 332 332 332 332 331 331 331 331 331 330 330 330 329 328 329 329
262 262 262 261 260 258 256 256 256 257 259 261 263 264 264 265 264 264 264 264 265 266 267 268 269 270 271 272 273 274 275 277 278 278 280 283 285 287 289 290 291 292 294 294 295 298 305 311 316 320 322 322 319 317 317 318 319 319 320 321 322 323 325 327 329 331 332 332 332 332 332 332 332 332 332 332 331 330 330 329 330 329 328 329 329
265 265 265 265 264 263 261 260 259 258 259 259 261 262 264 265 266 266 266 267 267 268 268 269 269 270 271 272 273 273 274 275 276 278 280 283 285 286 288 289 290 291 292 294 297 302 309 316 320 323 324 321 319 318 318 319 319 319 320 321 322 324 326 328 330 332 333 332 332 332 332 333 333 333 333 332 331 330 330 330 330 329 329 329 329
268 268 268 266 264 263 262 262 261 260 259 259 260 262 263 265 266 267 268 268 268 268 268 269 269 270 270 271 272 272 273 274 276 278 281 283 284 286 287 288 289 291 292 295 301 308 315 320 324 325 323 321 319 319 319 319 319 320 321 322 324 326 328 329 331 332 333 332 332 333 333 333 334 334 333 332 332 332 331 330 331 330 330 330 329
266 266 265 263 262 261 260 260 260 259 260 260 261 262 263 265 266 267 267 267 268 268 269 269 269 269 269 269 270 271 272 274 276 279 281 282 284 285 285 286 289 291 293 298 306 313 320 324 325 324 322 320 319 318 318 319 320 321 322 324 326 327 329 330 331 332 333 333 333 333 333 334 334 334 333 333 332 332 331 331 331 331 330 330 330
263 263 262 262 261 261 260 259 258 258 258 259 260 262 263 265 266 267 267 268 268 268 268 268 268 267 268 268 269 270 272 275 277 279 281 282 282 282 284 288 290 290 293 302 311 318 323 325 324 323 321 320 319 318 319 320 321 322 324 326 327 328 329 331 332 332 333 333 332 333 333 334 334 333 333 332 331 332 332 332 332 332 331 330 330
262 263 263 263 263 263 262 261 260 259 259 260 261 262 263 264 265 266 267 267 267 267 266 266 266 266 267 268 269 271 273 276 278 279 280 279 279 280 286 290 290 290 297 307 315 321 324 323 322 321 320 319 318 318 319 320 322 324 326 327 328 329 330 331 332 332 332 332 332 333 333 333 333 333 332 332 332 333 333 333 333 333 332 330 330
264 266 267 267 267 267 266 266 265 265 264 263 263 262 262 263 264 264 265 265 265 265 265 265 266 267 268 269 270 272 274 276 277 278 277 276 278 283 289 290 288 292 303 312 318 321 322 321 320 320 319 318 318 318 320 321 323 325 327 327 328 329 330 331 332 332 332 332 332 333 333 333 333 332 332 332 333 334 334 333 333 334 334 332 331
266 268 269 269 269 269 268 268 268 267 266 265 264 262 261 261 262 263 264 264 265 265 265 266 268 268 269 270 271 273 274 275 275 274 274 276 282 288 290 287 288 297 308 315 318 318 318 318 318 318 316 316 317 318 320 323 324 325 326 327 328 329 330 331 331 331 331 331 332 332 333 333 333 333 332 333 334 334 334 334 334 335 337 336 332
266 267 268 268 269 269 268 268 268 268 267 265 264 262 261 261 261 262 263 264 265 266 267 268 268 269 270 270 272 273 274 273 272 273 275 281 287 290 287 285 292 303 311 315 315 314 315 316 316 315 314 315 317 319 322 323 324 325 326 327 328 329 330 330 330 330 330 331 332 332 333 333 333 333 333 334 335 335 334 335 337 339 341 340 336
265 266 267 268 269 269 269 269 269 268 267 266 265 263 263 262 263 263 264 265 266 267 268 268 268 269 270 271 272 272 272 271 272 274 280 286 289 286 284 288 298 307 311 312 311 310 311 313 313 313 313 315 317 320 321 322 323 324 325 326 327 328 329 329 329 329 330 331 332 332 333 333 334 333 334 335 335 335 334 336 339 343 345 344 341
268 268 269 269 269 270 270 271 271 270 269 268 267 266 265 264 264 264 264 264 265 265 266 267 267 268 269 271 271 271 271 272 274 278 284 288 286 282 285 293 303 308 309 308 307 307 309 311 312 312 313 315 317 318 320 321 322 324 325 326 327 327 328 328 328 329 329 330 331 332 333 334 334 334 334 335 335 335 336 338 342 345 347 347 345
269 269 269 269 269 270 270 271 272 272 272 271 270 268 267 265 264 263 263 264 264 265 266 266 267 269 270 270 269 269 271 273 276 282 287 286 282 282 289 298 304 307 307 306 305 305 307 309 311 311 312 313 315 316 318 320 321 323 324 325 325 326 326 326 327 328 329 330 330 332 334 334 334 334 334 335 335 336 338 341 344 347 349 350 347
270 270 269 269 269 270 271 272 272 272 272 272 270 269 267 265 264 264 264 265 265 266 266 267 268 268 268 267 268 270 273 275 279 284 286 282 279 284 292 299 304 306 306 305 303 303 305 307 308 309 310 311 313 315 317 319 320 321 322 323 324 324 325 326 327 328 328 328 330 332 334 335 335 334 335 335 336 337 339 342 346 348 350 351 350
271 270 270 269 270 271 272 273 274 274 273 272 271 270 268 266 264 262 262 262 262 263 264 264 264 264 265 266 269 271 273 276 281 285 283 278 279 285 291 297 303 306 306 303 301 301 302 304 306 308 308 310 311 313 315 316 317 319 321 322 322 323 324 325 327 327 327 328 329 332 334 335 335 335 335 336 336 337 339 342 346 349 350 352 352
273 273 272 272 273 273 274 274 275 275 274 273 271 270 268 266 263 261 260 260 260 261 261 262 262 263 264 266 269 271 274 278 283 284 279 275 280 287 292 297 302 305 305 302 300 299 300 302 305 306 306 307 309 310 312 313 316 318 319 320 321 322 323 325 326 326 327 328 330 333 335 336 336 335 335 335 336 336 338 342 346 349 351 353 354
274 274 274 274 274 274 274 274 274 274 273 272 270 269 267 265 263 261 260 259 259 259 260 261 262 263 265 267 269 271 275 279 283 282 276 277 286 292 294 296 298 301 302 301 299 297 298 300 302 303 304 305 306 308 310 312 315 317 318 319 320 321 322 324 325 326 327 328 331 333 335 336 336 335 335 335 335 335 337 340 345 348 351 352 354
274 274 274 274 274 274 274 274 274 274 273 271 270 269 268 266 263 261 260 259 258 259 260 261 263 264 266 268 270 273 277 282 283 279 276 282 292 294 292 291 293 297 301 301 298 296 297 299 300 301 302 304 305 306 308 311 314 316 316 317 319 320 321 322 324 325 327 328 331 333 334 335 335 335 334 334 333 334 335 337 342 346 350 352 354
273 274 275 275 276 277 277 277 277 277 276 274 272 271 270 268 265 262 260 259 259 260 261 263 264 266 267 269 272 277 280 282 280 276 278 288 294 292 289 288 289 295 300 300 297 296 296 297 298 299 301 302 303 305 307 310 313 314 315 316 317 318 320 322 324 325 327 329 331 332 333 334 334 334 333 333 333 333 333 335 338 343 347 350 352
274 275 276 277 278 279 279 279 279 278 278 277 275 273 271 268 264 261 259 258 259 260 262 264 266 268 269 271 275 278 279 279 279 279 282 289 291 287 286 287 289 293 298 299 297 295 295 295 296 298 299 300 301 303 307 309 311 312 314 315 316 317 319 322 324 325 327 329 330 332 332 333 333 333 333 332 332 332 332 333 336 340 344 348 351
279 279 279 279 279 279 278 278 277 276 276 276 276 275 271 266 262 259 257 258 259 261 263 265 266 268 270 272 275 277 277 279 282 283 283 285 286 284 285 287 289 292 295 297 296 295 294 294 295 295 296 298 300 303 306 308 310 312 313 315 315 316 318 321 323 325 327 328 330 330 331 331 332 332 332 331 331 332 332 333 334 338 342 345 349
283 283 282 281 280 278 277 276 275 274 274 273 273 272 269 265 261 258 256 255 257 259 262 263 264 267 270 273 276 277 277 280 283 282 280 280 281 281 282 286 289 290 292 294 295 294 294 294 293 292 294 297 300 302 305 307 309 311 313 314 314 315 317 320 323 325 326 327 328 329 329 329 330 330 330 330 330 331 332 333 334 336 340 343 346
283 282 281 280 279 277 276 276 275 274 273 272 271 270 269 266 264 260 257 256 257 258 260 262 264 267 270 273 275 276 277 278 279 280 279 277 277 279 281 283 285 287 288 290 293 294 294 293 291 290 293 296 299 302 304 306 309 311 312 312 313 314 317 320 322 324 326 327 327 327 327 327 327 328 329 329 329 330 332 333 334 336 338 341 343
280 279 278 277 276 276 275 275 275 275 274 274 274 273 271 269 266 263 261 261 260 260 261 262 264 266 268 270 272 274 274 274 276 278 278 276 275 277 279 280 282 283 285 287 290 291 291 290 289 289 292 295 298 300 303 305 308 310 311 311 311 313 317 320 322 324 325 325 326 325 326 326 326 326 328 328 328 329 331 333 334 335 336 339 340
279 278 277 276 275 275 275 274 274 274 274 274 275 274 273 271 269 266 265 263 262 261 261 262 263 265 267 269 271 272 272 273 275 276 276 273 272 275 277 278 280 282 283 285 287 288 288 289 288 288 290 293 296 299 302 305 307 309 309 310 310 313 316 319 322 324 324 324 324 324 324 325 325 325 325 326 326 327 328 331 333 333 334 336 338
278 277 276 276 276 275 275 274 274 274 274 274 274 274 273 272 270 268 265 263 262 261 261 262 264 266 266 268 269 270 271 272 272 272 271 271 272 274 276 277 280 281 281 283 284 285 286 287 287 286 289 292 295 298 301 304 306 307 308 309 310 313 316 319 321 322 323 323 323 323 323 324 324 323 323 324 324 324 326 328 331 331 332 334 335
278 277 277 277 277 276 276 276 276 275 274 273 273 273 273 273 271 267 264 262 261 260 260 261 262 263 264 265 267 268 269 270 270 270 270 271 273 274 275 276 278 280 281 283 284 285 285 285 285 285 288 291 294 297 300 302 304 306 307 308 310 312 315 317 320 321 322 322 322 322 322 322 322 322 321 321 322 322 323 325 327 328 328 330 332
278 278 278 278 278 278 278 278 277 276 275 273 273 272 272 272 270 267 264 262 260 258 258 258 259 261 262 264 265 266 267 268 269 270 271 272 273 273 274 275 277 280 283 284 285 284 284 284 284 284 287 290 293 296 298 300 303 305 306 308 309 311 314 316 319 320 321 321 320 320 320 320 321 321 320 319 319 320 321 322 323 323 324 325 328
277 278 278 278 278 278 278 277 276 275 275 274 272 271 270 270 269 268 265 262 259 257 256 257 259 261 262 264 265 266 266 268 269 270 271 272 273 274 274 275 277 281 283 283 283 284 283 283 283 283 285 288 291 294 296 298 300 303 305 306 308 310 313 315 318 319 319 319 319 319 319 319 319 319 318 317 318 318 318 319 319 318 317 319 321
277 276 276 276 276 276 276 276 275 274 273 272 271 270 269 269 269 269 268 266 263 260 258 258 259 261 262 263 264 265 267 269 270 271 271 272 273 273 274 275 278 280 281 281 282 283 282 281 281 282 283 286 289 292 295 296 298 301 303 305 307 309 311 314 316 317 318 317 317 318 318 317 318 318 318 316 316 317 316 316 316 315 312 311 312
275 275 275 275 275 276 275 275 275 274 273 272 271 270 269 268 268 268 269 269 267 265 263 261 261 261 262 263 264 265 267 269 270 269 270 271 272 273 274 276 278 279 279 280 282 282 281 280 279 279 281 284 287 290 292 294 296 299 301 303 305 307 310 312 315 316 315 315 316 316 317 316 317 318 317 316 316 317 316 314 314 313 309 304 302
275 275 275 275 275 276 276 275 275 275 274 274 273 272 271 269 268 267 267 267 267 267 266 264 263 263 263 263 264 266 267 268 269 269 270 271 272 273 275 276 277 277 278 279 280 280 279 277 277 277 280 283 285 288 290 292 295 297 300 302 304 306 309 311 313 314 313 314 314 315 315 315 316 317 317 316 316 317 317 314 312 311 309 303 296
277 277 277 277 277 276 276 276 276 276 276 275 275 274 273 272 270 269 268 267 267 267 267 267 266 266 265 265 265 266 266 268 269 270 271 272 273 274 274 275 276 276 277 278 279 278 276 275 274 275 278 281 283 286 288 290 293 296 299 301 303 305 308 310 311 311 311 311 312 313 313 314 315 316 316 316 317 318 318 315 311 310 309 304 297
280 280 279 279 279 278 278 278 277 277 277 276 276 276 275 274 273 272 271 270 269 268 268 268 268 269 269 268 268 268 268 268 269 269 270 272 273 274 274 274 275 275 276 277 276 275 273 272 272 273 276 279 282 284 286 288 291 295 297 299 301 304 306 308 308 309 308 309 310 311 311 311 312 313 314 315 316 317 317 314 310 307 306 304 299
281 281 281 281 281 280 280 279 279 279 278 278 278 277 277 277 276 275 274 273 271 270 268 268 268 268 269 269 269 268 268 268 269 269 270 271 272 272 272 273 273 274 275 275 274 273 271 270 270 272 275 277 279 281 283 286 290 293 295 297 300 302 304 305 306 306 305 306 307 308 308 308 308 309 310 313 314 315 315 313 309 305 303 302 300
283 282 282 282 281 281 281 280 280 280 279 279 278 278 278 277 277 277 276 276 275 274 272 270 268 268 268 268 268 267 266 267 267 268 268 269 269 270 270 271 272 273 273 273 272 270 269 268 269 272 274 275 276 277 280 283 287 290 292 295 298 300 302 302 303 303 302 302 304 304 304 304 304 305 307 309 310 311 312 312 309 305 302 299 298
282 282 281 281 281 280 280 280 279 279 279 279 278 278 277 277 277 277 277 277 277 276 275 273 270 268 267 268 268 268 266 265 265 265 265 266 267 268 268 269 271 272 272 271 269 267 266 267 269 270 271 272 273 275 277 281 284 287 290 293 295 297 299 300 300 299 298 299 301 301 300 300 300 301 303 304 305 306 308 308 307 305 301 298 296
Height
3133 3133 3134 3134 3134 3134 3134 3135 3135 3135 3135 3136 3136 3137 3138 3139 3139 3140 3140 3141 3142 3142 3143 3143 3144 3145 3145 3146 3147 3148 3149 3149 3149 3149 3148 3147 3146 3145 3144 3143 3142 3141 3140 3139 3137 3136 3134 3133 3131 3129 3128 3126 3124 3122 3120 3117 3115 3112 3109 3106 3103 3099 3096 3093 3087 3084 3084 3082 3078 3074 3070 3067 3064 3060 3055 3051 3048 3044 3038 3033 3030 3024 3017 3012 3007
3129 3129 3129 3130 3130 3130 3130 3130 3131 3131 3131 3132 3133 3133 3134 3134 3135 3135 3136 3137 3138 3138 3139 3140 3141 3142 3143 3144 3145 3145 3146 3146 3146 3145 3145 3144 3143 3142 3141 3140 3139 3138 3137 3135 3134 3132 3131 3129 3127 3126 3124 3122 3120 3118 3116 3114 3111 3109 3106 3102 3099 3096 3092 3089 3084 3079 3077 3076 3074 3069 3065 3061 3057 3054 3049 3043 3040 3037 3031 3026 3022 3018 3011 3004 2999
3125 3125 3125 3126 3126 3126 3126 3126 3127 3127 3128 3128 3129 3129 3130 3130 3131 3131 3132 3133 3134 3135 3136 3137 3138 3139 3141 3142 3142 3143 3143 3143 3142 3142 3141 3140 3139 3138 3138 3137 3136 3134 3133 3131 3130 3128 3127 3126 3124 3122 3121 3119 3117 3115 3112 3110 3108 3105 3102 3098 3095 3092 3088 3084 3081 3076 3071 3070 3068 3064 3059 3055 3051 3047 3042 3037 3033 3029 3024 3020 3016 3012 3007 2999 2992
3121 3121 3121 3121 3122 3122 3122 3122 3123 3123 3124 3125 3125 3125 3126 3126 3127 3127 3128 3130 3131 3132 3133 3134 3136 3137 3138 3139 3139 3140 3140 3139 3139 3138 3138 3137 3136 3135 3134 3133 3132 3131 3129 3128 3126 3125 3124 3122 3121 3119 3117 3115 3113 3111 3109 3106 3104 3100 3097 3094 3091 3088 3085 3081 3077 3073 3068 3065 3064 3061 3055 3050 3046 3041 3035 3031 3028 3023 3017 3012 3007 3003 2999 2992 2985
3118 3118 3118 3118 3118 3118 3118 3119 3119 3120 3121 3121 3121 3122 3122 3123 3123 3124 3125 3127 3128 3129 3131 3132 3134 3135 3136 3136 3136 3136 3136 3136 3135 3135 3134 3133 3132 3131 3130 3129 3128 3127 3126 3124 3123 3122 3120 3119 3117 3115 3114 3112 3109 3107 3105 3102 3099 3096 3093 3090 3088 3084 3081 3078 3074 3070 3066 3061 3059 3057 3052 3046 3041 3037 3029 3022 3018 3015 3010 3006 3000 2993 2987 2983 2977
3114 3114 3114 3114 3115 3115 3115 3116 3116 3117 3117 3117 3118 3118 3119 3120 3120 3121 3123 3124 3125 3127 3129 3130 3131 3132 3133 3133 3133 3133 3133 3132 3132 3131 3130 3130 3129 3128 3127 3126 3124 3123 3122 3121 3120 3118 3117 3115 3113 3112 3110 3108 3106 3103 3101 3098 3095 3092 3089 3086 3083 3080 3077 3074 3071 3067 3063 3059 3054 3050 3047 3041 3035 3030 3024 3015 3008 3002 2997 2995 2994 2989 2981 2974 2969
3111 3111 3111 3111 3112 3112 3112 3113 3113 3113 3114 3114 3115 3115 3116 3117 3118 3119 3121 3122 3124 3125 3126 3127 3128 3129 3129 3129 3129 3129 3129 3129 3128 3127 3127 3126 3125 3124 3123 3122 3121 3120 3118 3117 3116 3114 3113 3111 3109 3107 3105 3103 3101 3098 3096 3093 3090 3087 3084 3081 3078 3075 3072 3069 3066 3062 3057 3054 3049 3043 3039 3035 3028 3022 3018 3011 3004 2997 2988 2979 2977 2977 2973 2967 2961
3108 3108 3108 3108 3109 3109 3109 3109 3110 3110 3111 3112 3112 3113 3114 3115 3116 3117 3119 3120 3121 3123 3123 3124 3125 3125 3126 3126 3126 3126 3125 3125 3124 3123 3123 3122 3121 3120 3119 3118 3117 3116 3115 3113 3112 3110 3109 3107 3105 3103 3101 3098 3096 3094 3091 3088 3086 3082 3079 3076 3073 3070 3067 3063 3060 3057 3052 3047 3042 3037 3032 3028 3022 3016 3011 3004 2996 2990 2983 2972 2964 2962 2960 2957 2954
3105 3105 3106 3106 3106 3106 3107 3107 3108 3108 3109 3110 3111 3111 3112 3113 3114 3115 3117 3118 3119 3120 3121 3121 3122 3122 3122 3122 3122 3122 3121 3121 3120 3120 3119 3118 3117 3116 3115 3114 3113 3112 3110 3109 3108 3106 3104 3102 3100 3098 3096 3094 3091 3089 3086 3083 3080 3077 3074 3071 3068 3065 3062 3058 3054 3050 3046 3041 3035 3030 3025 3021 3015 3007 3002 2996 2988 2981 2976 2969 2961 2955 2949 2945 2946
3102 3103 3103 3103 3104 3104 3105 3105 3106 3107 3107 3108 3109 3109 3110 3111 3112 3113 3114 3115 3116 3117 3118 3118 3119 3119 3119 3119 3119 3118 3118 3117 3116 3116 3115 3114 3113 3112 3111 3110 3109 3107 3106 3105 3103 3101 3100 3098 3096 3094 3092 3090 3087 3085 3082 3079 3076 3073 3070 3066 3063 3060 3056 3053 3049 3045 3040 3036 3030 3024 3018 3015 3010 3001 2994 2989 2983 2976 2970 2962 2954 2948 2943 2935 2933
3099 3100 3100 3101 3101 3102 3102 3103 3104 3105 3105 3106 3106 3107 3108 3109 3110 3111 3111 3112 3113 3114 3115 3115 3115 3115 3115 3115 3115 3114 3114 3113 3112 3112 3111 3110 3109 3108 3107 3106 3105 3103 3102 3100 3099 3097 3095 3093 3091 3090 3088 3086 3083 3081 3078 3075 3072 3069 3066 3063 3059 3056 3052 3049 3045 3040 3035 3030 3026 3020 3012 3007 3003 2997 2989 2982 2977 2971 2964 2957 2948 2940 2935 2926 2919
3096 3096 3097 3097 3098 3099 3100 3101 3101 3102 3103 3103 3104 3105 3105 3106 3107 3108 3109 3110 3111 3111 3112 3112 3112 3112 3111 3111 3111 3110 3110 3109 3108 3107 3107 3106 3105 3104 3103 3102 3101 3099 3098 3096 3095 3093 3091 3089 3087 3086 3084 3081 3079 3077 3074 3071 3068 3066 3063 3060 3056 3053 3048 3044 3040 3036 3031 3026 3022 3016 3007 3000 2996 2991 2983 2975 2969 2964 2957 2951 2944 2935 2929 2922 2913
3093 3093 3094 3095 3095 3096 3097 3098 3099 3099 3100 3101 3101 3102 3103 3104 3105 3106 3106 3107 3107 3108 3108 3108 3108 3108 3107 3107 3107 3106 3105 3105 3104 3103 3102 3101 3100 3099 3099 3098 3096 3095 3093 3092 3090 3088 3086 3085 3083 3081 3079 3077 3075 3072 3070 3067 3065 3062 3059 3056 3053 3049 3045 3041 3036 3031 3027 3021 3015 3010 3003 2996 2990 2984 2977 2968 2960 2954 2948 2942 2937 2931 2925 2920 2913
3090 3091 3091 3092 3092 3093 3094 3095 3096 3096 3097 3098 3098 3099 3100 3101 3101 3102 3103 3103 3103 3104 3104 3104 3103 3103 3103 3103 3102 3102 3101 3101 3100 3099 3098 3097 3096 3095 3094 3093 3092 3090 3088 3087 3085 3084 3082 3080 3079 3077 3075 3073 3070 3068 3066 3063 3061 3058 3055 3052 3049 3046 3041 3037 3033 3027 3021 3015 3009 3005 2999 2992 2985 2978 2971 2964 2954 2947 2940 2933 2929 2924 2919 2915 2910
3087 3088 3088 3089 3090 3090 3091 3092 3092 3093 3094 3095 3095 3096 3096 3097 3097 3098 3098 3099 3099 3099 3099 3099 3099 3099 3098 3098 3098 3097 3097 3096 3095 3094 3093 3092 3092 3091 3090 3089 3087 3085 3083 3082 3080 3079 3077 3076 3074 3072 3070 3068 3066 3063 3061 3059 3056 3053 3051 3048 3044 3041 3037 3032 3028 3022 3016 3010 3004 2999 2994 2988 2981 2974 2966 2958 2950 2943 2937 2930 2924 2917 2912 2908 2905
3084 3085 3086 3086 3087 3087 3088 3088 3089 3089 3090 3091 3091 3092 3092 3093 3093 3094 3094 3094 3094 3094 3095 3094 3094 3094 3094 3094 3093 3093 3092 3092 3091 3090 3089 3088 3087 3086 3085 3083 3082 3080 3078 3077 3075 3074 3072 3071 3069 3067 3065 3063 3060 3058 3056 3054 3051 3049 3046 3043 3040 3036 3032 3027 3023 3017 3012 3006 3000 2994 2989 2983 2977 2969 2961 2953 2945 2938 2933 2927 2921 2914 2907 2902 2898
3082 3082 3083 3083 3084 3084 3084 3085 3085 3086 3086 3086 3087 3088 3088 3088 3089 3089 3089 3090 3090 3090 3090 3090 3089 3089 3089 3089 3089 3088 3087 3087 3086 3085 3084 3083 3082 3081 3080 3078 3077 3075 3073 3072 3070 3069 3068 3066 3064 3062 3060 3058 3055 3053 3051 3049 3047 3044 3042 3039 3036 3032 3028 3023 3018 3013 3008 3003 2997 2992 2986 2980 2974 2966 2958 2949 2941 2934 2927 2921 2916 2910 2903 2897 2891
3079 3080 3080 3080 3080 3080 3080 3081 3081 3081 3082 3082 3083 3083 3084 3084 3084 3084 3085 3085 3085 3085 3085 3085 3085 3085 3084 3084 3084 3083 3082 3082 3081 3080 3079 3079 3077 3076 3075 3073 3072 3070 3068 3067 3066 3064 3063 3061 3059 3057 3055 3053 3051 3049 3047 3044 3042 3040 3037 3035 3031 3027 3022 3018 3014 3010 3005 2999 2994 2988 2982 2976 2970 2963 2954 2945 2937 2929 2922 2916 2910 2905 2899 2893 2886
3075 3076 3075 3075 3076 3076 3076 3076 3077 3077 3077 3078 3078 3078 3079 3079 3079 3079 3079 3079 3080 3080 3080 3080 3080 3080 3079 3079 3078 3078 3077 3077 3077 3076 3075 3074 3073 3071 3070 3068 3067 3065 3064 3062 3061 3060 3058 3056 3055 3053 3051 3049 3047 3044 3042 3039 3037 3035 3032 3029 3026 3022 3018 3013 3008 3005 3001 2996 2991 2985 2979 2972 2966 2960 2953 2945 2937 2929 2921 2913 2906 2900 2895 2889 2883
3070 3070 3070 3071 3071 3071 3071 3071 3072 3072 3072 3073 3073 3073 3073 3074 3074 3074 3074 3075 3075 3075 3075 3075 3075 3074 3074 3074 3073 3073 3073 3072 3072 3071 3071 3069 3068 3066 3065 3064 3062 3061 3059 3058 3056 3055 3053 3052 3050 3049 3047 3045 3042 3040 3037 3035 3032 3029 3026 3022 3019 3016 3013 3009 3004 2999 2996 2991 2987 2981 2975 2969 2963 2957 2951 2946 2939 2932 2923 2914 2906 2898 2891 2885 2880
3065 3065 3066 3066 3066 3066 3067 3067 3067 3067 3067 3067 3068 3068 3068 3068 3069 3069 3069 3069 3070 3070 3070 3070 3069 3069 3069 3069 3069 3068 3068 3068 3067 3066 3066 3064 3063 3061 3061 3059 3058 3056 3055 3054 3052 3050 3049 3047 3046 3044 3042 3040 3038 3035 3032 3030 3027 3024 3020 3017 3013 3010 3007 3004 3000 2996 2991 2986 2982 2976 2971 2967 2962 2956 2950 2944 2938 2932 2925 2918 2909 2900 2891 2883 2877
3060 3060 3061 3061 3061 3061 3062 3062 3062 3062 3063 3063 3063 3062 3063 3063 3063 3063 3063 3064 3064 3064 3064 3065 3065 3065 3065 3064 3064 3064 3063 3063 3062 3061 3060 3059 3058 3057 3056 3055 3054 3052 3051 3049 3047 3046 3045 3043 3041 3039 3037 3034 3032 3030 3028 3025 3022 3018 3015 3012 3009 3005 3002 2999 2995 2991 2987 2982 2977 2972 2966 2962 2958 2953 2948 2942 2936 2930 2924 2918 2911 2902 2893 2885 2877
3055 3055 3055 3056 3056 3056 3056 3056 3057 3057 3057 3057 3057 3057 3057 3057 3057 3058 3058 3058 3059 3059 3059 3060 3060 3060 3060 3060 3059 3059 3058 3058 3057 3055 3054 3054 3053 3053 3052 3050 3050 3048 3046 3044 3043 3041 3040 3038 3036 3034 3031 3029 3027 3025 3022 3019 3016 3013 3010 3007 3004 3001 2997 2994 2990 2986 2982 2978 2973 2967 2962 2958 2953 2948 2943 2938 2932 2927 2921 2915 2909 2902 2894 2886 2879
3050 3050 3050 3050 3050 3051 3051 3051 3051 3051 3051 3052 3051 3051 3051 3052 3052 3052 3053 3053 3054 3054 3055 3055 3055 3055 3055 3055 3054 3054 3053 3052 3051 3049 3049 3049 3049 3048 3047 3046 3045 3043 3041 3040 3038 3037 3035 3033 3031 3028 3026 3024 3022 3019 3016 3013 3010 3008 3005 3002 2999 2996 2992 2989 2985 2982 2978 2973 2968 2963 2958 2953 2948 2943 2938 2932 2927 2922 2917 2911 2905 2899 2892 2885 2878
3046 3046 3046 3046 3046 3046 3046 3046 3046 3046 3046 3046 3046 3046 3046 3046 3047 3047 3047 3048 3049 3049 3050 3050 3050 3050 3049 3049 3049 3049 3048 3046 3045 3045 3045 3045 3044 3043 3042 3041 3040 3038 3037 3035 3034 3033 3031 3028 3026 3023 3021 3019 3016 3013 3010 3007 3005 3003 3000 2997 2994 2991 2988 2984 2981 2977 2973 2968 2964 2960 2955 2950 2944 2938 2933 2928 2923 2918 2913 2908 2902 2895 2890 2884 2878
3041 3041 3041 3041 3041 3041 3041 3041 3041 3041 3041 3040 3041 3041 3041 3041 3041 3041 3042 3043 3043 3044 3044 3044 3044 3044 3044 3044 3044 3043 3042 3040 3040 3041 3041 3040 3039 3038 3037 3036 3034 3033 3032 3031 3029 3028 3026 3023 3021 3018 3016 3014 3011 3008 3006 3003 3000 2998 2995 2992 2989 2986 2983 2980 2977 2973 2969 2964 2960 2956 2951 2946 2940 2935 2929 2924 2919 2914 2909 2903 2898 2892 2886 2881 2876
3037 3036 3036 3036 3036 3035 3035 3035 3035 3036 3036 3036 3036 3036 3036 3036 3036 3036 3036 3037 3038 3038 3039 3039 3039 3039 3039 3039 3038 3037 3036 3035 3035 3036 3036 3034 3034 3033 3032 3030 3030 3028 3027 3026 3024 3023 3020 3018 3016 3014 3012 3009 3007 3004 3001 2998 2996 2993 2990 2988 2985 2982 2979 2976 2972 2968 2964 2960 2957 2953 2948 2942 2937 2931 2926 2921 2916 2910 2905 2899 2894 2888 2883 2877 2872
3031 3031 3031 3030 3030 3030 3030 3030 3030 3030 3031 3031 3031 3031 3030 3030 3030 3031 3031 3032 3033 3033 3034 3033 3034 3034 3033 3032 3032 3031 3030 3030 3031 3031 3030 3029 3029 3028 3027 3026 3025 3024 3022 3021 3019 3018 3016 3014 3012 3010 3008 3005 3003 3000 2997 2994 2992 2989 2987 2984 2981 2978 2975 2972 2967 2963 2959 2956 2954 2950 2945 2939 2933 2928 2923 2918 2913 2908 2903 2898 2892 2886 2881 2875 2869
3026 3026 3025 3025 3025 3025 3025 3025 3025 3025 3025 3025 3025 3025 3025 3025 3025 3025 3026 3027 3027 3028 3028 3028 3028 3028 3027 3027 3026 3026 3025 3026 3027 3026 3025 3024 3024 3023 3022 3021 3020 3019 3017 3016 3015 3013 3011 3009 3007 3005 3003 3001 2999 2996 2993 2991 2988 2985 2983 2980 2977 2974 2971 2967 2963 2959 2956 2952 2949 2945 2940 2935 2930 2925 2920 2915 2911 2906 2901 2897 2892 2886 2880 2875 2869
3021 3021 3020 3020 3020 3020 3020 3020 3019 3019 3019 3019 3019 3019 3019 3019 3019 3019 3020 3021 3022 3022 3022 3022 3022 3022 3021 3021 3021 3020 3021 3022 3022 3021 3020 3020 3019 3018 3017 3015 3014 3013 3013 3011 3010 3008 3006 3005 3003 3000 2998 2997 2995 2993 2990 2988 2985 2981 2978 2976 2974 2970 2966 2962 2959 2955 2952 2948 2944 2940 2935 2930 2926 2921 2917 2913 2909 2905 2900 2896 2891 2886 2880 2875 2869
3016 3016 3016 3015 3015 3015 3014 3014 3014 3014 3014 3013 3013 3013 3012 3013 3013 3013 3014 3014 3015 3015 3015 3015 3016 3016 3015 3015 3015 3015 3016 3017 3017 3016 3015 3015 3014 3012 3011 3010 3009 3009 3007 3006 3005 3003 3001 3000 2998 2996 2994 2992 2990 2988 2986 2983 2980 2977 2974 2971 2969 2966 2962 2958 2955 2951 2948 2944 2940 2935 2931 2926 2922 2918 2914 2910 2907 2903 2899 2895 2890 2885 2880 2875 2870
3011 3011 3011 3010 3010 3009 3009 3009 3009 3008 3008 3008 3007 3007 3007 3007 3007 3007 3008 3008 3008 3009 3009 3009 3010 3010 3009 3009 3009 3010 3011 3011 3011 3010 3009 3009 3008 3007 3006 3005 3004 3003 3002 3001 3000 2998 2996 2994 2993 2991 2989 2987 2985 2983 2981 2978 2975 2973 2970 2967 2964 2961 2958 2954 2951 2947 2944 2940 2936 2932 2928 2923 2919 2915 2911 2908 2904 2901 2898 2894 2890 2886 2881 2875 2870
3006 3006 3006 3005 3005 3005 3004 3004 3004 3003 3003 3002 3002 3001 3001 3001 3001 3002 3002 3002 3003 3003 3003 3003 3004 3004 3003 3003 3004 3005 3005 3005 3005 3004 3003 3002 3002 3001 3000 3000 2999 2998 2996 2995 2994 2993 2991 2989 2987 2986 2984 2982 2980 2978 2976 2973 2970 2968 2965 2963 2960 2957 2953 2950 2946 2943 2939 2936 2932 2928 2924 2921 2917 2913 2909 2905 2902 2899 2895 2892 2889 2885 2881 2876 2871
3002 3001 3001 3001 3000 3000 3000 2999 2999 2998 2998 2997 2996 2996 2996 2996 2996 2996 2996 2996 2997 2997 2998 2998 2998 2998 2998 2998 2998 3000 3000 2999 2998 2998 2997 2996 2996 2995 2995 2994 2993 2992 2991 2990 2988 2987 2985 2984 2982 2980 2979 2977 2975 2973 2970 2968 2966 2963 2961 2958 2955 2952 2949 2945 2941 2938 2935 2931 2928 2924 2921 2917 2914 2911 2907 2904 2900 2897 2894 2890 2887 2884 2880 2876 2872
2997 2997 2997 2996 2996 2995 2995 2994 2993 2993 2992 2992 2991 2991 2990 2990 2990 2990 2990 2991 2992 2992 2993 2993 2993 2993 2992 2992 2993 2994 2993 2992 2992 2992 2991 2990 2990 2989 2988 2988 2987 2986 2985 2984 2983 2981 2980 2978 2977 2975 2973 2972 2970 2968 2966 2963 2961 2958 2956 2953 2950 2947 2944 2941 2937 2934 2930 2927 2924 2921 2918 2914 2911 2908 2905 2901 2898 2895 2892 2889 2886 2882 2879 2875 2872
2992 2991 2991 2991 2991 2990 2989 2989 2988 2988 2987 2986 2986 2985 2984 2984 2984 2984 2985 2985 2985 2986 2987 2987 2987 2987 2987 2987 2987 2987 2987 2986 2986 2986 2985 2984 2984 2983 2982 2982 2981 2980 2979 2978 2977 2976 2974 2973 2971 2969 2968 2966 2964 2962 2961 2958 2956 2953 2951 2948 2946 2943 2940 2936 2933 2929 2926 2923 2921 2918 2915 2912 2909 2905 2902 2899 2896 2893 2890 2887 2884 2881 2878 2875 2871
2986 2986 2986 2985 2985 2984 2984 2983 2983 2982 2982 2981 2980 2979 2979 2978 2978 2978 2978 2978 2979 2980 2980 2981 2981 2981 2981 2981 2982 2981 2981 2980 2980 2979 2979 2978 2977 2977 2976 2975 2975 2973 2972 2972 2971 2969 2968 2967 2965 2963 2962 2960 2959 2957 2955 2953 2951 2948 2945 2943 2941 2938 2935 2931 2928 2925 2922 2919 2917 2914 2912 2909 2906 2903 2900 2897 2893 2890 2888 2885 2882 2879 2877 2874 2871
2980 2980 2980 2979 2979 2978 2978 2977 2977 2976 2976 2975 2975 2974 2974 2973 2972 2972 2972 2973 2973 2974 2974 2974 2974 2974 2975 2976 2976 2975 2974 2974 2974 2973 2973 2972 2971 2971 2970 2969 2968 2967 2966 2965 2964 2963 2961 2960 2959 2957 2956 2954 2953 2951 2949 2947 2945 2943 2940 2938 2936 2933 2930 2927 2923 2920 2917 2915 2913 2911 2909 2906 2903 2900 2897 2894 2891 2888 2886 2883 2881 2878 2875 2873 2870
2974 2974 2973 2973 2972 2972 2972 2971 2971 2970 2970 2970 2969 2969 2968 2967 2967 2967 2967 2967 2967 2967 2967 2968 2968 2968 2969 2969 2969 2968 2968 2967 2968 2968 2967 2965 2964 2964 2963 2962 2961 2960 2959 2958 2957 2956 2955 2953 2952 2951 2950 2948 2947 2945 2943 2942 2940 2938 2936 2934 2931 2928 2925 2922 2919 2916 2913 2911 2909 2907 2905 2902 2900 2896 2894 2891 2888 2886 2884 2881 2879 2876 2874 2871 2869
2968 2968 2967 2966 2966 2966 2965 2965 2965 2964 2964 2964 2963 2963 2962 2961 2961 2961 2961 2960 2960 2961 2961 2961 2961 2962 2962 2962 2962 2961 2961 2961 2961 2960 2959 2958 2957 2957 2956 2955 2954 2953 2952 2951 2950 2949 2948 2947 2946 2944 2943 2942 2941 2939 2938 2936 2935 2933 2931 2929 2926 2923 2920 2917 2914 2911 2909 2907 2904 2902 2900 2898 2896 2893 2890 2888 2886 2883 2881 2879 2877 2875 2872 2870 2868
2961 2961 2960 2960 2960 2959 2959 2959 2958 2958 2958 2957 2957 2956 2956 2956 2955 2954 2954 2953 2953 2954 2954 2954 2954 2955 2955 2955 2954 2954 2953 2953 2953 2952 2951 2951 2950 2949 2948 2948 2947 2946 2945 2944 2943 2942 2941 2940 2939 2938 2937 2937 2935 2934 2932 2931 2929 2928 2926 2924 2921 2919 2916 2913 2910 2907 2904 2902 2900 2898 2896 2894 2892 2889 2887 2885 2882 2880 2879 2877 2875 2873 2871 2869 2867
2954 2953 2953 2953 2952 2952 2952 2952 2951 2951 2951 2950 2950 2950 2949 2949 2948 2947 2946 2946 2946 2946 2946 2946 2946 2946 2946 2947 2946 2945 2944 2945 2944 2944 2944 2944 2943 2942 2941 2941 2940 2940 2939 2938 2937 2936 2934 2933 2933 2932 2931 2931 2930 2928 2927 2925 2924 2922 2921 2919 2916 2914 2911 2908 2905 2902 2900 2898 2896 2894 2893 2890 2888 2886 2883 2881 2879 2877 2876 2874 2872 2871 2869 2867 2865
2946 2946 2945 2945 2944 2944 2944 2943 2943 2943 2943 2942 2942 2942 2941 2941 2940 2940 2939 2938 2938 2938 2937 2938 2938 2938 2938 2938 2937 2936 2936 2936 2936 2936 2936 2936 2935 2934 2934 2934 2933 2933 2932 2931 2930 2929 2928 2927 2926 2926 2925 2925 2924 2922 2921 2920 2919 2917 2916 2914 2912 2909 2907 2904 2900 2898 2896 2894 2892 2890 2889 2887 2884 2882 2879 2877 2876 2874 2872 2871 2870 2868 2867 2865 2863
2938 2938 2937 2936 2936 2936 2935 2935 2935 2934 2934 2934 2934 2934 2933 2933 2932 2932 2931 2931 2930 2930 2929 2929 2929 2929 2929 2929 2928 2928 2928 2929 2929 2929 2929 2928 2927 2927 2926 2926 2926 2926 2925 2924 2923 2922 2921 2920 2920 2919 2919 2919 2918 2917 2916 2915 2913 2912 2910 2909 2907 2904 2902 2899 2896 2893 2891 2890 2888 2886 2884 2882 2880 2878 2876 2874 2872 2870 2869 2868 2866 2865 2864 2863 2861
2930 2930 2929 2929 2928 2928 2927 2927 2926 2926 2926 2926 2925 2925 2925 2925 2924 2924 2924 2923 2923 2922 2921 2921 2921 2920 2920 2920 2919 2920 2920 2921 2921 2920 2920 2919 2919 2919 2919 2919 2919 2918 2918 2917 2916 2915 2914 2914 2913 2913 2913 2912 2911 2911 2910 2909 2908 2907 2905 2904 2902 2900 2897 2894 2891 2889 2887 2886 2884 2882 2880 2878 2876 2874 2872 2870 2868 2867 2865 2864 2863 2862 2861 2860 2859
2923 2922 2922 2921 2921 2920 2920 2919 2919 2918 2918 2917 2917 2917 2917 2916 2916 2916 2915 2915 2915 2914 2913 2913 2912 2912 2911 2911 2911 2911 2912 2912 2912 2912 2911 2911 2911 2911 2911 2911 2911 2910 2910 2909 2909 2909 2908 2907 2906 2906 2906 2906 2905 2905 2904 2903 2902 2901 2899 2898 2897 2895 2892 2889 2886 2884 2882 2881 2879 2878 2876 2874 2872 2870 2868 2866 2864 2863 2862 2861 2860 2859 2858 2857 2856
2916 2916 2915 2914 2914 2913 2912 2912 2911 2910 2910 2909 2909 2909 2908 2908 2908 2907 2907 2907 2906 2906 2905 2905 2904 2903 2903 2903 2902 2902 2903 2903 2904 2903 2903 2903 2903 2903 2903 2903 2902 2902 2902 2902 2902 2902 2901 2900 2900 2900 2900 2899 2899 2898 2898 2897 2896 2895 2893 2892 2891 2890 2887 2884 2881 2879 2878 2876 2875 2874 2872 2870 2868 2867 2865 2863 2861 2859 2858 2858 2857 2856 2855 2854 2853
2910 2909 2909 2908 2907 2906 2906 2905 2904 2903 2903 2902 2901 2901 2900 2900 2899 2899 2899 2898 2898 2897 2897 2897 2896 2895 2895 2895 2894 2894 2894 2895 2895 2895 2894 2894 2895 2894 2894 2894 2894 2894 2894 2894 2894 2894 2894 2894 2894 2894 2894 2893 2892 2892 2891 2891 2890 2889 2888 2887 2886 2884 2881 2879 2876 2874 2873 2871 2870 2869 2868 2866 2865 2863 2861 2859 2858 2856 2855 2854 2853 2853 2852 2851 2850
2904 2903 2902 2901 2901 2900 2899 2898 2897 2896 2896 2895 2894 2893 2893 2892 2891 2891 2890 2890 2889 2889 2889 2888 2888 2888 2887 2886 2886 2886 2885 2886 2886 2886 2886 2886 2886 2886 2886 2886 2886 2886 2887 2887 2887 2887 2887 2887 2887 2887 2887 2887 2886 2886 2885 2885 2884 2883 2882 2881 2880 2878 2876 2873 2871 2869 2868 2867 2866 2865 2864 2862 2861 2859 2858 2856 2854 2853 2852 2851 2850 2849 2848 2848 2847
2897 2896 2896 2895 2894 2893 2892 2891 2890 2890 2889 2888 2887 2886 2885 2884 2884 2883 2882 2881 2881 2881 2880 2879 2879 2879 2878 2877 2877 2877 2876 2877 2877 2877 2877 2877 2877 2877 2877 2878 2879 2879 2879 2879 2879 2879 2879 2880 2880 2881 2881 2880 2880 2880 2879 2878 2878 2877 2876 2875 2874 2872 2870 2868 2866 2864 2863 2862 2861 2860 2859 2858 2857 2855 2854 2852 2851 2850 2849 2848 2847 2846 2845 2844 2843
2890 2890 2889 2888 2887 2886 2885 2884 2883 2882 2881 2880 2879 2878 2877 2877 2876 2875 2874 2873 2873 2872 2871 2871 2870 2870 2869 2869 2868 2868 2867 2868 2868 2867 2868 2868 2868 2869 2870 2870 2871 2872 2872 2872 2871 2872 2872 2873 2873 2874 2874 2873 2873 2873 2873 2873 2872 2871 2870 2869 2868 2866 2864 2862 2861 2859 2858 2857 2856 2855 2854 2853 2852 2851 2850 2848 2847 2846 2845 2844 2843 2842 2841 2840 2839